Zurück zum Katalog

ONEWEB-0404

AktivKommunikationPO
NORAD 50484·PAYLOAD·🇬🇧 United Kingdom

Gestartet Dec 27, 2021 von Baikonur Cosmodrome

Loading…

Nächste Überflüge (nächste 24 Stunden)

TLE

AktuellSource: CelesTrak SupGP

Epoche: Sep 15, 2026, 00:02 UTC

1 50484C 21132R   26258.00153194 -.00000127  00000+0 -35765-3 0  2584
2 50484  87.8972   3.2121 0001867 112.7756 347.9048 13.11415740    17

Verfolge ONEWEB-0404 in Echtzeit mit AllMySat

Download on the App Store